Weather Roundup
Issued by NWS Chicago, IL

Home | Current Version | Previous Version | Text Only | Print | Product List | Glossary On
Versions: 1 2 3 4 5 6 7 8 9 10 11 12 13 14 15 16 17 18 19 20 21 22 23 24 25 26 27 28 29 30 31 32 33 34 35 36 37 38 39 40 41 42 43 44 45 46 47 48 49 50
000
NZUS59 KLOT 011710
HRRLOT

CHICAGO AREA WEATHER ROUNDUP
NATIONAL WEATHER SERVICE CHICAGO/ROMEOVILLE IL
1100 AM CST SUN FEB 01 2015

NOTE: "FAIR" INDICATES FEW OR NO CLOUDS BELOW 12,000 FEET WITH NO
SIGNIFICANT WEATHER AND/OR OBSTRUCTIONS TO VISIBILITY.

* THESE STATIONS ARE NOT UNDER NWS QUALITY CONTROL. THEY ALSO MAY NOT
  REPORT WEATHER SUCH AS PRECIPITATION OR FOG.

ILZ005-006-012>014-019>023-011800-
NORTHEAST ILLINOIS

CITY           SKY/WX    TMP DP  RH WIND       PRES   REMARKS
OHARE          SNOW      28  27  96 NE21      29.86F VSB 1/2 WCI  15
MIDWAY         SNOW      31  29  92 NE21G29   29.85F VSB 1/2 WCI  18
AURORA         LGT SNOW  31  26  82 NE24      29.81F VSB 3/4 WCI  17
LANSING*       SNOW      32  32  99 CALM      29.83F VSB 1/4
JOLIET*        LGT SNOW  32  31  96 NE3       29.80F
WAUKEGAN       SNOW      24  22  91 NE20G36   29.92F VSB 1/4 WCI  10
DUPAGE AIRPORT SNOW      29  27  92 NE17      29.83F VSB 1/2 WCI  17
WHEELING       SNOW      27  25  92 NE16G26   29.90F VSB 1/4 WCI  15
KANKAKEE*      LGT SNOW  33  32  97 E10       29.79F WCI  25
MORRIS*        LGT SNOW  32  32 100 E7        29.78F WCI  26
LEWIS AIRPORT* LGT SNOW  32  32 100 NE9       29.80F WCI  24
NORTHERLY IS     N/A     29  29 100 NE29        N/A  WCI  14
$$

WIZ051-052-058>065-066-070>072-011800-
SOUTHEAST WISCONSIN

CITY           SKY/WX    TMP DP  RH WIND       PRES   REMARKS
MILWAUKEE      SNOW      23  19  85 NE26G35   30.01F VSB 1/4 WCI   6
KENOSHA*       SNOW      24  21  88 NE25G36   29.94F VSB 1/4 WCI   8
RACINE*        SNOW      24  20  84 NE20G33   29.99F VSB 1/4 WCI  10
BURLINGTON     LGT SNOW  22  19  90 NE18G25   29.95F WCI   7
WAUKESHA       LGT SNOW  21  19  93 NE12G29   30.00F VSB 1   WCI   9
WEST BEND      LGT SNOW  21  16  79 NE17G24   30.05S WCI   7
$$

INZ001>003-010>013-019-020-011800-
NORTHWEST INDIANA

CITY           SKY/WX    TMP DP  RH WIND       PRES   REMARKS
GARY*          SNOW      34  30  86 NE12      29.85F VSB 1/4 WCI  25
MICHIGAN CITY* NOT AVBL
RENSSELAER*    NOT AVBL
VALPARAISO     SNOW      32  31  96 E17       29.83F VSB 1/4 WCI  21
$$

LMZ740>746-011800-
SOUTHERN LAKE MICHIGAN

STATION/POSITION TIME  SKY/WX   TEMP WIND        PRES    VSBY
                                AIR  DIR/SP/G
                 (UTC)          (F)  (DEG/KT/KT) (MB)    (MI)
HARRISON CRIB    1700            29   70/ 30/ 37   N/A
BURNHAM HARBOR   1700            29   70/ 24/ 25   N/A
CALUMET HARBOR   1700            30   60/ 18/ 26   N/A
BURNS HARBOR     NOT AVBL
MICHIGAN CITY    1700            29   50/ 15/ 19   N/A
$$

ABBREVIATIONS USED IN REMARKS
   TC - TEMPERATURE IN CELSIUS
  WCI - WIND CHILL INDEX
   HX - HEAT INDEX
  VSB - VISIBILITY
$$


USA.gov is the U.S. government's official web portal to all federal, state and local government web resources and services.